Skip Page Navigation
NASA JPL Caltech
NASA Logo - Jet Propulsion Laboratory + View the NASA Portal
+ Center for Near-Earth Object Studies
JPL Home Earth Solar System Stars & Galaxies Technology
JPL Solar System Dynamics
BODIES ORBITS EPHEMERIDES TOOLS PHYSICAL DATA DISCOVERY FAQ SITE MAP
JPL Small-Body Database Browser
Search: [ help ]  
214460 (2005 SM128)
Classification: Main-belt Asteroid          SPK-ID: 2214460
Ephemeris | Orbit Diagram | Orbital Elements | Mission Design | Physical Parameters | Discovery Circumstances | Close-Approach Data ]

[ show orbit diagram ]
Orbital Elements at Epoch 2459000.5 (2020-May-31.0) TDB
Reference: JPL 13 (heliocentric ecliptic J2000)
 Element Value Uncertainty (1-sigma)   Units 
e .1678501628823445 3.8823e-08  
a 3.138819557446978 3.4404e-08 au
q 2.611968183471215 1.3773e-07 au
i 14.42916591740029 6.005e-06 deg
node 213.0935897539642 1.5991e-05 deg
peri 83.55334002246215 2.6226e-05 deg
M 291.5152946207274 2.1396e-05 deg
tp 2459386.901712773582
(2021-Jun-21.40171277)
0.00012453 TDB
period 2031.177849537636
5.56
3.3395e-05
9.143e-08
d
yr
n .1772370647316522 2.914e-09 deg/d
Q 3.665670931422742 4.0179e-08 au
  Orbit Determination Parameters
   # obs. used (total)      366  
   data-arc span      15539 days (42.54 yr)  
   first obs. used      1977-10-11  
   last obs. used      2020-04-27  
   planetary ephem.      DE431  
   SB-pert. ephem.      SB431-N16  
   condition code      0  
   norm. resid. RMS      .51882  
   source      ORB  
   producer      Otto Matic  
   solution date      2020-May-21 09:06:41  

Additional Information
 Earth MOID = 1.64659 au 
 Jupiter MOID = 1.7077 au 
 T_jup = 3.141 
[ hide covariance matrix ]
Orbital Elements at Epoch 2457691.5 (2016-Oct-30.0) TDB
Reference: JPL 13 (heliocentric ecliptic J2000)
 Element Value Uncertainty (1-sigma)   Units 
e .1667092531507945 3.882e-08  
q 2.618097518502915 1.3786e-07 au
tp 2457353.852724792474
(2015-Nov-27.35272479)
0.00010825 TDB
node 213.1079801286201 1.5985e-05 deg
peri 83.49144354090917 2.634e-05 deg
i 14.42642182455097 6.0041e-06 deg
  Orbit Determination Parameters
   # obs. used (total)      366  
   data-arc span      15539 days (42.54 yr)  
   first obs. used      1977-10-11  
   last obs. used      2020-04-27  
   planetary ephem.      DE431  
   SB-pert. ephem.      SB431-N16  
   condition code      0  
   norm. resid. RMS      .51882  
   source      ORB  
   producer      Otto Matic  
   solution date      2020-May-21 09:06:41  

Additional Information
 Jupiter MOID = 1.7077 au 
 T_jup = 3.141 
Orbit Covariance (6×6)
  e q tp node peri i
e 1.507003011321717E-15 -5.260325489778762E-15 -5.848162291696282E-13 7.053353461794856E-15 -9.761115441645713E-14 -5.11404487814942E-15
q -5.260325489778762E-15 1.900614748613076E-14 3.094004408038476E-12 -2.787554467505258E-14 5.626185444391005E-13 2.154159621176263E-14
tp -5.848162291696282E-13 3.094004408038476E-12 1.171756886764039E-8 -2.098233573495333E-11 2.277687595641798E-9 1.549638516486891E-11
node 7.053353461794856E-15 -2.787554467505258E-14 -2.098233573495333E-11 2.55528355779146E-10 -2.512765100030168E-10 -1.074823212484366E-11
peri -9.761115441645713E-14 5.626185444391005E-13 2.277687595641798E-9 -2.512765100030168E-10 6.937870346815385E-10 1.342680830575885E-11
i -5.11404487814942E-15 2.154159621176263E-14 1.549638516486891E-11 -1.074823212484366E-11 1.342680830575885E-11 3.604926353962369E-11

Ephemeris | Orbit Diagram | Orbital Elements | Mission Design | Physical Parameters | Discovery Circumstances | Close-Approach Data ]

Physical Parameter Table
Parameter Symbol Value Units Sigma Reference Notes
absolute magnitude H 15.2   n/a MPO433402  
diameter diameter 5.225 km 0.127 urn:nasa:pds:neowise_diameters_albedos::2.0[mainbelt] (http://adsabs.harvard.edu/abs/2011ApJ...741...68M)  
geometric albedo albedo 0.059   0.001 urn:nasa:pds:neowise_diameters_albedos::2.0[mainbelt] (http://adsabs.harvard.edu/abs/2011ApJ...741...68M)  

214460 (2005 SM128)          Discovered 2005-Sep-29 by LONEOS at Anderson Mesa
Reference: 20090509/Numbers.arcLast Updated: 2009-05-11

[ show close-approach data ]
Alternate Designations
 2005 SM128 = 2487 T-3 
Ephemeris | Orbit Diagram | Orbital Elements | Mission Design | Physical Parameters | Discovery Circumstances | Close-Approach Data ]
ABOUT SSD CREDITS/AWARDS PRIVACY/COPYRIGHT GLOSSARY LINKS
FirstGov 2020-Sep-27 02:03 UT
(server date/time)  
NASA Home Page
Site Manager:   Ryan S. Park
Webmaster  Alan B. Chamberlin